Location: Alfords
(31.4624°N, 83.9238°W)
Time: 12:00:48
(UTC+00:00)

Tiangong - Pass Details

Date: 28 September 2021
Orbit: 382 x 384 km, 41.5° (Epoch: 21 October)

Event Time Altitude Azimuth Distance (km) Brightness Sun altitude
Exits shadow 09:44:18 25° 22° (NNE) 818 3.0 -22.8°
Drops below altitude 10° 09:46:02 10° 45° (NE) 1,394 4.7 -22.4°
Sets 09:48:12 0° 55° (NE) 2,247 6.1 -21.9°
